813  
ASUS44 KLIX 070711  
RWRLIX  
NEW ORLEANS REGIONAL WEATHER ROUNDUP  
NATIONAL WEATHER SERVICE NEW ORLEANS LA  
100 AM CST TUE FEB 07 2023  
 
NOTE: "FAIR" INDICATES FEW OR NO CLOUDS BELOW 12,000 FEET WITH NO  
SIGNIFICANT WEATHER AND/OR S TO VISIBILITY
.  
SKY/WX - SKY CONDITION AND SIGNIFICANT WEATHER.  
TMP - AIR TEMPERATURE. DP - DEWPOINT TEMPERATURE.  
RH - RELATIVE HUMIDITY. PRES - PRESSURE.  
HI - HEAT INDEX. WCI - WIND CHILL INDEX.  
 
* THESE STATIONS ARE NOT NWS OR FAA STATIONS AND ARE NOT UNDER  
NWS QUALITY CONTROL.  
 
LAZ038-048-061-063-065>067-069-076-077-070800-  
SOUTHEAST LOUISIANA  
 
CITY SKY/WX TMP DP RH WIND PRES REMARKS
 
N.O. INTL ARPT PTCLDY 58 56 93 E6 30.09F  
N.O. DWNTWN HE NOT AVBL  
N.O. LAKEFRONT PTCLDY 61 58 90 SE6 30.10F  
RESERVE* MOCLDY 57 55 94 E3 30.10S  
SLIDELL PTCLDY 54 53 97 NE3 30.10F  
BATON ROUGE PTCLDY 56 53 90 E3 30.09S  
BOOTHVILLE* PTCLDY 64 60 85 E8 30.10F  
BELLE CHASSE* PTCLDY 61 59 93 SE7 30.09S  
BOGALUSA* FAIR 47 45 90 CALM 30.12S  
GALLIANO* PTCLDY 64 61 91 SE3 30.09S  
NEW ROADS* MOCLDY 51 49 93 CALM 30.10S  
GONZALES* MOCLDY 53 52 95 CALM 30.09S  
HAMMOND* PTCLDY 51 50 95 CALM 30.11R  
HOUMA* PTCLDY 56 55 95 CALM 30.09S FOG  
 

 
 
MSZ070-077-080>082-070800-  
SOUTHERN MISSISSIPPI  
 
CITY SKY/WX TMP DP RH WIND PRES REMARKS
 
MCCOMB PTCLDY 51 48 89 SE3 30.10F  
GULFPORT CLEAR 60 57 89 E8 30.11F  
BILOXI PTCLDY 60 56 87 E8 30.10S  
PASCAGOULA CLEAR 58 54 86 SE6 30.13S  
 

 
 
COASTAL OBSERVATIONS  
LAKE AND NEARSHORE STATIONS  
 
STATION/POSITION TIME SKY/WX TEMP WIND PRES WAVE
 
AIR SEA DIR/SP/G HT/PER  
(UTC) (F) (DEG/KT/KT) (MB) (FT/S)  
WAVELAND YACHT 0630 69 58 120/ 11/ 13 1019.8  
GRAND ISLE 0630 64 63 1018.9  
SOUTHWEST PASS 0630 63 49 1018.6  
NEW CANAL 0630 59 60 140/ 2/ 4 1018.4  
SHELL BEACH 0630 63 58 110/ 10/ 12 1019.2  
 
OFFSHORE STATIONS  
 
STATION/POSITION TIME SKY/WX TEMP WIND PRES WAVE
 
AIR SEA DIR/SP/G HT/PER  
(UTC) (F) (DEG/KT/KT) (MB) (FT/S)  
64 S DAUPHIN ISL 0650 71 73 120/ 17/ 21 1020.3 4/ 5  
SW PASS ENTRANCE 0630 62 62 N/A 2/ 4  
 

 
 
 
 
CLICK HERE TO GO TO PREVIOUS BULLETINS.

The Nexlab LA Page
The Nexlab MS Page Main Text Page